Left ArrowRight Arrow

44.8408, -93.29828

Hourly Observations for June 19, 2024

Temp ( °F °C ) Dew Point ( °F °C ) Humidity (%) Winds ( mph kmh ) Pressure ( in mb ) Visibility ( mi km ) Precip ( " mm )
12:26 am 00:26 Cloudy 66 18.9 62 16.7 87 87 W 14 22 29.85 1011 10 16 0.00 0.00
12:53 am 00:53 Cloudy 66 18.9 62 16.7 87 87 W 13 20 29.88 1012 10 16 0.00 0.00
1:53 am 01:53 Cloudy 65 18.3 60 15.6 84 84 W 12 19 29.93 1013 10 16 0.01 0.13
2:08 am 02:08 Cloudy 65 18.3 59 15 81 81 W 14 22 29.93 1014 10 16 0.00 0.00
2:53 am 02:53 Cloudy 64 17.8 59 15 84 84 W 13 20 29.96 1015 10 16 0.00 0.00
3:53 am 03:53 Cloudy 64 17.8 58 14.4 80 80 W 10 17 29.99 1016 10 16 0.00 0.00
4:32 am 04:32 Cloudy 63 17.2 57 13.9 81 81 WNW 13 20 30.02 1016 10 16 0.00 0.00
4:53 am 04:53 Cloudy 63 17.2 56 13.3 78 78 WNW 14 22 30.03 1017 10 16 0.00 0.00
5:53 am 05:53 Cloudy 63 17.2 54 12.2 72 72 W 9 15 30.07 1018 10 16 0.00 0.00
6:53 am 06:53 Cloudy 63 17.2 54 12.2 72 72 WNW 10 17 30.10 1019 10 16 0.00 0.00
7:53 am 07:53 Cloudy 62 16.7 52 11.1 70 70 NW 16 26 30.14 1021 10 16 0.00 0.00
8:53 am 08:53 Mostly Cloudy 64 17.8 54 12.2 70 70 NW 14 22 30.16 1021 10 16 0.00 0.00
9:25 am 09:25 Mostly Cloudy 65 18.3 54 12.2 68 68 NW 9 15 30.16 1021 10 16 0.00 0.00
9:53 am 09:53 Mostly Cloudy 66 18.9 53 11.7 63 63 NW 12 19 30.19 1022 10 16 0.00 0.00
10:53 am 10:53 Mostly Cloudy 68 20 54 12.2 61 61 NNW 13 20 30.22 1023 10 16 0.00 0.00
11:53 am 11:53 Mostly Cloudy 68 20 53 11.7 59 59 NW 10 17 30.24 1024 10 16 0.00 0.00
12:53 pm 12:53 Mostly Cloudy 69 20.6 52 11.1 54 54 NNW 10 17 30.25 1025 10 16 0.00 0.00
1:53 pm 13:53 Mostly Cloudy 70 21.1 52 11.1 53 53 NNW 9 15 30.25 1025 10 16 0.00 0.00
2:53 pm 14:53 Mostly Cloudy 70 21.1 52 11.1 53 53 N 8 13 30.26 1025 10 16 0.00 0.00
3:53 pm 15:53 Mostly Cloudy 72 22.2 51 10.6 48 48 VRB 6 9 30.27 1025 10 16 0.00 0.00
4:53 pm 16:53 Mostly Cloudy 73 22.8 52 11.1 48 48 ENE 7 11 30.26 1025 10 16 0.00 0.00
5:53 pm 17:53 Mostly Cloudy 73 22.8 53 11.7 50 50 NE 9 15 30.25 1024 10 16 0.00 0.00
6:53 pm 18:53 Mostly Cloudy 72 22.2 52 11.1 49 49 NE 8 13 30.27 1025 10 16 0.00 0.00
7:53 pm 19:53 Mostly Cloudy 71 21.7 52 11.1 51 51 ENE 10 17 30.27 1025 10 16 0.00 0.00
8:53 pm 20:53 Mostly Cloudy 69 20.6 52 11.1 54 54 NNE 6 9 30.29 1026 10 16 0.00 0.00
9:53 pm 21:53 Mostly Cloudy 68 20 52 11.1 57 57 VRB 7 11 30.30 1026 10 16 0.00 0.00
10:53 pm 22:53 Mostly Cloudy 65 18.3 53 11.7 65 65 NE 6 9 30.31 1027 10 16 0.00 0.00
11:53 pm 23:53 Partly Cloudy 64 17.8 53 11.7 67 67 NE 6 9 30.32 1027 10 16 0.00 0.00

Powered by Vaisala Xweather